Location: Prescott
(34.5400°N, 112.4680°W)
Time: 18:11:58
(UTC-07:00)

ISS - Visible Passes

Search period start: 16 February 2019 00:00
Search period end: 26 February 2019 00:00
Orbit: 403 x 411 km, 51.6° (Epoch: 17 February)

Date Brightness Start Highest point End Pass type
(mag) Time Alt. Az. Time Alt. Az. Time Alt. Az.
19 Feb -0.3 06:28:44 10° SE 06:29:30 11° SE 06:30:15 10° ESE visible
21 Feb -1.9 06:19:55 10° SSW 06:22:49 30° SE 06:25:44 10° ENE visible
22 Feb -0.9 05:29:35 10° SSE 05:31:31 15° SE 05:33:27 10° E visible
23 Feb -3.9 06:13:07 11° SW 06:16:16 84° NW 06:19:32 10° NE visible
24 Feb -2.9 05:24:31 41° SSE 05:24:50 43° SE 05:27:56 10° ENE visible
25 Feb -0.3 04:35:41 11° E 04:35:41 11° E 04:35:57 10° E visible
25 Feb -2.8 06:08:25 21° W 06:09:49 30° NW 06:12:45 10° NNE visible
